Weather History for KJAX - December, 2002

Change the Weather History Date:

Tuesday, December 31, 2002

  Actual Average Record
Temperature  
Mean Temperature 60 °F 53 °F  
Max Temperature 75 °F 65 °F 82 °F (1988)
Min Temperature 46 °F 42 °F 19 °F (1917)
Degree Days  
Heating Degree Days 4 12  
Month to date heating degree days 322  
Since 1 July heating degree days 496  
Cooling Degree Days 0 0  
Month to date cooling degree days 21  
Year to date cooling degree days 2665  
Growing Degree Days 10 (Base 50)    
Moisture  
Dew Point 57 °F    
Average Humidity 87    
Maximum Humidity 100    
Minimum Humidity 64    
Precipitation  
Precipitation 1.08 in 0.09 in 1.83 in (1963)
Month to date precipitation 2.80  
Year to date precipitation 52.39  
Snow  
Snow 0.00 in 0.00 in T in (1917)
Month to date snowfall T  
Since 1 July snowfall T  
Snow Depth -    
Sea Level Pressure  
Sea Level Pressure 29.99 in    
Wind  
Wind Speed 6 mph (SE)    
Max Wind Speed 25 mph    
Max Gust Speed 45 mph    
Visibility 8 miles    
Events Rain , Thunderstorm    
T = Trace of Precipitation, MM = Missing Value Source: NWS Daily Summary

Daily Weather History Graph

Daily Weather History Graph

Search for Another Location

Airport or City:

Trip Planner

Search our weather history database for the weather conditions in past years. The results will help you decide how hot, cold, wet, or windy it might be!

Date:

Astronomy

Dec. 31, 2002 Rise Set
Actual Time 7:23 AM EST 5:36 PM EST
Civil Twilight 6:57 AM EST 6:02 PM EST
Nautical Twilight 6:27 AM EST 6:32 PM EST
Astronomical Twilight 5:57 AM EST 7:01 PM EST
Moon 5:06 AM EST (12/31) 3:38 PM EST (12/31)
Length of Visible Light 11h 05m
Length of Day
10h 12m
Waning Crescent, 6% of the Moon is Illuminated
Dec 31
Waning Crescent
Jan 2
New
Jan 10
First Quarter
Jan 18
Full
Jan 25
Last Quarter

Hourly Weather History & Observations

Time (EST) Temp. Dew Point Humidity Pressure Visibility Wind Dir Wind Speed Gust Speed Precip Events Conditions
12:56 AM 46.9 °F 45.0 °F 93% 30.19 in 10.0 mi Calm Calm - N/A   Overcast
1:56 AM 48.0 °F 46.9 °F 96% 30.18 in 10.0 mi Calm Calm - N/A   Overcast
2:56 AM 48.9 °F 48.0 °F 97% 30.17 in 7.0 mi Calm Calm - N/A   Overcast
3:56 AM 50.0 °F 48.9 °F 96% 30.15 in 7.0 mi Calm Calm - N/A   Overcast
4:56 AM 51.1 °F 50.0 °F 96% 30.12 in 7.0 mi East 3.5 mph - N/A   Overcast
5:56 AM 52.0 °F 50.0 °F 93% 30.14 in 10.0 mi Calm Calm - N/A   Overcast
6:56 AM 54.0 °F 52.0 °F 93% 30.13 in 10.0 mi Calm Calm - N/A   Mostly Cloudy
7:56 AM 55.9 °F 54.0 °F 93% 30.13 in 8.0 mi Calm Calm - N/A   Mostly Cloudy
8:56 AM 61.0 °F 57.9 °F 90% 30.13 in 10.0 mi SSE 4.6 mph - N/A   Overcast
9:56 AM 64.9 °F 61.0 °F 87% 30.12 in 10.0 mi SSE 6.9 mph - N/A   Overcast
10:56 AM 71.1 °F 62.1 °F 73% 30.10 in 10.0 mi South 10.4 mph 16.1 mph N/A   Mostly Cloudy
11:56 AM 73.0 °F 62.1 °F 68% 30.05 in 10.0 mi South 12.7 mph - N/A   Mostly Cloudy
12:56 PM 75.0 °F 62.1 °F 64% 30.01 in 10.0 mi South 15.0 mph 20.7 mph N/A   Overcast
1:56 PM 73.9 °F 61.0 °F 64% 29.96 in 10.0 mi South 15.0 mph - N/A   Overcast
2:56 PM 73.9 °F 61.0 °F 64% 29.94 in 10.0 mi South 13.8 mph - N/A   Overcast
3:56 PM 73.0 °F 63.0 °F 71% 29.90 in 10.0 mi SE 9.2 mph - N/A   Overcast
4:56 PM 71.1 °F 63.0 °F 75% 29.88 in 10.0 mi SE 13.8 mph - N/A   Overcast
5:56 PM 71.1 °F 61.0 °F 70% 29.88 in 10.0 mi SE 13.8 mph - N/A   Overcast
6:56 PM 63.0 °F 57.9 °F 84% 29.96 in 8.0 mi West 25.3 mph 44.9 mph 0.02 in Rain Light Rain
7:07 PM 60.8 °F 57.2 °F 88% 29.96 in 1.5 mi NW 20.7 mph 38.0 mph 0.18 in Rain , Thunderstorm Heavy Thunderstorms and Rain
7:23 PM 60.8 °F 57.2 °F 88% 29.97 in 1.5 mi WNW 10.4 mph - 0.33 in Rain , Thunderstorm Heavy Thunderstorms and Rain
7:32 PM 60.8 °F 57.2 °F 88% 29.97 in 2.0 mi NW 8.1 mph - 0.39 in Rain , Thunderstorm Thunderstorms and Rain
7:56 PM 60.1 °F 59.0 °F 96% 29.96 in 3.0 mi NNE 3.5 mph - 0.50 in Rain , Thunderstorm Thunderstorms and Rain
8:24 PM 59.0 °F 59.0 °F 100% 29.94 in 4.0 mi NNE 4.6 mph - 0.11 in Rain Rain
8:56 PM 59.0 °F 59.0 °F 100% 29.94 in 7.0 mi ENE 6.9 mph - 0.17 in Rain Rain
9:27 PM 59.0 °F 57.2 °F 94% 29.91 in 7.0 mi East 9.2 mph - 0.05 in Rain Rain
9:56 PM 59.0 °F 57.9 °F 96% 29.91 in 6.0 mi East 9.2 mph - 0.13 in Rain Rain
10:15 PM 59.0 °F 57.2 °F 94% 29.90 in 6.0 mi East 8.1 mph - 0.05 in Rain Rain
10:49 PM 59.0 °F 57.2 °F 94% 29.86 in 6.0 mi East 13.8 mph - 0.15 in Rain Rain
10:56 PM 59.0 °F 57.9 °F 96% 29.83 in 7.0 mi East 18.4 mph 23.0 mph 0.16 in Rain Rain
11:30 PM 60.8 °F 59.0 °F 94% 29.83 in 7.0 mi SE 10.4 mph - 0.07 in Rain Rain
11:49 PM 60.8 °F 59.0 °F 94% 29.82 in 10.0 mi SE 15.0 mph - 0.10 in Rain , Thunderstorm Light Thunderstorms and Rain
11:56 PM 60.1 °F 59.0 °F 96% 29.81 in 10.0 mi ESE 15.0 mph - 0.10 in Rain , Thunderstorm Light Thunderstorms and Rain